• In Russia
  • List of Countries
  • For 7 days
  • Water Temperature
  • Satellite Maps
  • Weather Map
  • Weather Widgets
  • user-avatar
    Login

    Hourly Weather Dangriga

    Today, 17 August, Thursday

    Time Temperature Precipitation Wind Pressure Humidity
    00:00 +26°C° 1.6 mm 4 mps 760 mmHg 95%
    01:00 +27°C° 0.9 mm 4 mps 760 mmHg 95%
    02:00 +27°C° 0.9 mm 4 mps 760 mmHg 95%
    03:00 +27°C° 0.9 mm 4 mps 759 mmHg 96%
    04:00 +27°C° 1.2 mm 4 mps 759 mmHg 96%
    05:00 +27°C° 1.2 mm 4 mps 760 mmHg 95%
    06:00 +27°C° 1.2 mm 4 mps 760 mmHg 95%
    07:00 +28°C° 1 mm 4 mps 760 mmHg 90%
    08:00 +29°C° 1 mm 4 mps 760 mmHg 85%
    09:00 +32°C° 1 mm 4 mps 761 mmHg 80%
    10:00 +31°C° 1.1 mm 3 mps 761 mmHg 77%
    11:00 +33°C° 1.1 mm 3 mps 761 mmHg 73%
    12:00 +34°C° 1.1 mm 3 mps 760 mmHg 70%
    13:00 +34°C° 0.1 mm 3 mps 760 mmHg 65%
    14:00 +35°C° 0.1 mm 3 mps 759 mmHg 61%
    15:00 +35°C° 0.1 mm 4 mps 759 mmHg 56%
    16:00 +34°C° 0 mm 4 mps 759 mmHg 64%
    17:00 +33°C° 0 mm 4 mps 759 mmHg 71%
    18:00 +30°C° 0 mm 4 mps 759 mmHg 79%
    19:00 +29°C° 0 mm 4 mps 759 mmHg 84%
    20:00 +28°C° 0 mm 4 mps 760 mmHg 90%
    21:00 +27°C° 0 mm 4 mps 760 mmHg 96%
    22:00 +27°C° 0.1 mm 4 mps 760 mmHg 96%
    23:00 +27°C° 0.1 mm 4 mps 760 mmHg 97%

    Tomorrow, 18 August, Friday

    Time Temperature Precipitation Wind Pressure Humidity
    00:00 +27°C° 0.1 mm 4 mps 760 mmHg 98%
    01:00 +27°C° 0.1 mm 4 mps 760 mmHg 98%
    02:00 +27°C° 0.1 mm 3 mps 759 mmHg 98%
    03:00 +27°C° 0.1 mm 3 mps 759 mmHg 98%
    04:00 +27°C° 0.1 mm 3 mps 759 mmHg 98%
    05:00 +27°C° 0.1 mm 3 mps 759 mmHg 98%
    06:00 +27°C° 0.1 mm 3 mps 759 mmHg 98%
    07:00 +28°C° 0.1 mm 3 mps 760 mmHg 93%
    08:00 +30°C° 0.1 mm 3 mps 760 mmHg 87%
    09:00 +31°C° 0.1 mm 3 mps 760 mmHg 81%
    10:00 +33°C° 0.1 mm 3 mps 760 mmHg 71%
    11:00 +35°C° 0.1 mm 3 mps 760 mmHg 60%
    12:00 +37°C° 0.1 mm 3 mps 760 mmHg 50%
    13:00 +36°C° 0 mm 3 mps 759 mmHg 49%
    14:00 +36°C° 0 mm 3 mps 759 mmHg 49%
    15:00 +36°C° 0 mm 3 mps 758 mmHg 48%
    16:00 +35°C° 0 mm 3 mps 758 mmHg 58%
    17:00 +33°C° 0 mm 3 mps 758 mmHg 67%
    18:00 +30°C° 0 mm 3 mps 758 mmHg 77%
    19:00 +29°C° 0 mm 3 mps 759 mmHg 83%
    20:00 +28°C° 0 mm 3 mps 759 mmHg 89%
    21:00 +27°C° 0 mm 3 mps 760 mmHg 95%
    22:00 +27°C° 0 mm 3 mps 760 mmHg 96%
    23:00 +27°C° 0 mm 2 mps 760 mmHg 97%

    Day after tomorrow, 19 August, Saturday

    Time Temperature Precipitation Wind Pressure Humidity
    00:00 +27°C° 0 mm 2 mps 760 mmHg 98%
    01:00 +27°C° 0.2 mm 2 mps 759 mmHg 98%
    02:00 +27°C° 0.2 mm 2 mps 759 mmHg 98%
    03:00 +27°C° 0.2 mm 2 mps 758 mmHg 99%
    04:00 +27°C° 0.2 mm 2 mps 758 mmHg 98%
    05:00 +27°C° 0.2 mm 2 mps 758 mmHg 98%
    06:00 +26°C° 0.2 mm 2 mps 759 mmHg 98%
    07:00 +28°C° 0.1 mm 2 mps 759 mmHg 89%
    08:00 +30°C° 0.1 mm 2 mps 759 mmHg 79%
    09:00 +32°C° 0.1 mm 2 mps 760 mmHg 69%
    10:00 +35°C° 0.1 mm 2 mps 760 mmHg 61%
    11:00 +36°C° 0.1 mm 2 mps 759 mmHg 53%
    12:00 +37°C° 0.1 mm 3 mps 759 mmHg 45%
    13:00 +37°C° 0 mm 3 mps 758 mmHg 46%
    14:00 +37°C° 0 mm 3 mps 758 mmHg 46%
    15:00 +37°C° 0 mm 3 mps 757 mmHg 47%
    16:00 +35°C° 0.1 mm 3 mps 757 mmHg 56%
    17:00 +33°C° 0.1 mm 4 mps 757 mmHg 66%
    18:00 +30°C° 0.1 mm 4 mps 757 mmHg 75%
    19:00 +29°C° 0.7 mm 4 mps 758 mmHg 82%
    20:00 +28°C° 0.7 mm 3 mps 758 mmHg 89%
    21:00 +27°C° 0.7 mm 3 mps 759 mmHg 96%
    22:00 +27°C° 1.2 mm 3 mps 759 mmHg 97%
    23:00 +27°C° 1.2 mm 3 mps 759 mmHg 97%

    20 August, Sunday

    Time Temperature Precipitation Wind Pressure Humidity
    00:00 +26°C° 1.2 mm 3 mps 759 mmHg 98%
    01:00 +26°C° 0.8 mm 2 mps 758 mmHg 98%
    02:00 +26°C° 0.8 mm 2 mps 758 mmHg 98%
    03:00 +26°C° 0.8 mm 1 mps 758 mmHg 98%
    04:00 +26°C° 0.4 mm 1 mps 758 mmHg 98%
    05:00 +26°C° 0.4 mm 1 mps 758 mmHg 98%
    06:00 +26°C° 0.4 mm 1 mps 758 mmHg 98%
    07:00 +28°C° 0.2 mm 1 mps 759 mmHg 87%
    08:00 +31°C° 0.2 mm 1 mps 759 mmHg 76%
    09:00 +33°C° 0.2 mm 1 mps 759 mmHg 64%
    10:00 +34°C° 0.3 mm 1 mps 759 mmHg 63%
    11:00 +34°C° 0.3 mm 1 mps 759 mmHg 61%
    12:00 +36°C° 0.3 mm 2 mps 758 mmHg 59%
    13:00 +35°C° 0.7 mm 2 mps 758 mmHg 66%
    14:00 +34°C° 0.7 mm 3 mps 757 mmHg 72%
    15:00 +33°C° 0.7 mm 3 mps 756 mmHg 79%
    16:00 +32°C° 0.6 mm 4 mps 757 mmHg 81%
    17:00 +30°C° 0.6 mm 4 mps 757 mmHg 84%
    18:00 +29°C° 0.6 mm 4 mps 758 mmHg 86%
    19:00 +29°C° 0.4 mm 4 mps 758 mmHg 89%
    20:00 +28°C° 0.4 mm 4 mps 758 mmHg 92%
    21:00 +27°C° 0.4 mm 4 mps 759 mmHg 94%
    22:00 +27°C° 0 mm 3 mps 759 mmHg 95%
    23:00 +27°C° 0 mm 3 mps 759 mmHg 96%

    21 August, Monday

    Time Temperature Precipitation Wind Pressure Humidity
    00:00 +27°C° 0 mm 3 mps 759 mmHg 96%
    01:00 +27°C° 0.1 mm 3 mps 759 mmHg 97%
    02:00 +27°C° 0.1 mm 2 mps 758 mmHg 97%
    03:00 +27°C° 0.1 mm 2 mps 758 mmHg 97%
    04:00 +27°C° 0.4 mm 2 mps 758 mmHg 97%
    05:00 +27°C° 0.4 mm 2 mps 759 mmHg 98%
    06:00 +27°C° 0.4 mm 2 mps 759 mmHg 98%
    07:00 +28°C° 0.6 mm 2 mps 759 mmHg 90%
    08:00 +30°C° 0.6 mm 2 mps 760 mmHg 83%
    09:00 +31°C° 0.6 mm 2 mps 760 mmHg 76%
    10:00 +30°C° 1.3 mm 2 mps 760 mmHg 81%
    11:00 +30°C° 1.3 mm 2 mps 759 mmHg 87%
    12:00 +29°C° 1.3 mm 2 mps 759 mmHg 92%
    13:00 +29°C° 0.3 mm 3 mps 759 mmHg 90%
    14:00 +29°C° 0.3 mm 3 mps 758 mmHg 89%
    15:00 +30°C° 0.3 mm 3 mps 758 mmHg 87%
    16:00 +29°C° 0.3 mm 3 mps 758 mmHg 90%
    17:00 +28°C° 0.3 mm 4 mps 758 mmHg 93%
    18:00 +27°C° 0.3 mm 4 mps 758 mmHg 96%
    19:00 +27°C° 1.1 mm 4 mps 759 mmHg 97%
    20:00 +27°C° 1.1 mm 4 mps 759 mmHg 98%
    21:00 +27°C° 1.1 mm 4 mps 759 mmHg 99%
    22:00 +27°C° 0.9 mm 4 mps 759 mmHg 99%
    23:00 +27°C° 0.9 mm 4 mps 759 mmHg 99%

    22 August, Tuesday

    Time Temperature Precipitation Wind Pressure Humidity
    00:00 +27°C° 0.9 mm 4 mps 759 mmHg 99%
    01:00 +27°C° 0.8 mm 4 mps 759 mmHg 99%
    02:00 +27°C° 0.8 mm 3 mps 758 mmHg 99%
    03:00 +27°C° 0.8 mm 3 mps 758 mmHg 99%
    04:00 +27°C° 0.6 mm 3 mps 759 mmHg 99%
    05:00 +27°C° 0.6 mm 3 mps 759 mmHg 99%
    06:00 +27°C° 0.6 mm 3 mps 759 mmHg 99%
    07:00 +28°C° 0.1 mm 3 mps 760 mmHg 95%
    08:00 +29°C° 0.1 mm 2 mps 760 mmHg 90%
    09:00 +30°C° 0.1 mm 2 mps 760 mmHg 86%
    10:00 +31°C° 0 mm 2 mps 760 mmHg 77%
    11:00 +34°C° 0 mm 2 mps 760 mmHg 68%
    12:00 +35°C° 0 mm 2 mps 760 mmHg 59%
    13:00 +35°C° 0.1 mm 2 mps 759 mmHg 60%
    14:00 +35°C° 0.1 mm 2 mps 758 mmHg 61%
    15:00 +35°C° 0.1 mm 2 mps 758 mmHg 62%
    16:00 +32°C° 0 mm 2 mps 758 mmHg 69%
    17:00 +31°C° 0 mm 2 mps 758 mmHg 76%
    18:00 +30°C° 0 mm 3 mps 759 mmHg 83%
    19:00 +29°C° 0.1 mm 3 mps 759 mmHg 86%
    20:00 +29°C° 0.1 mm 3 mps 759 mmHg 90%
    21:00 +28°C° 0.1 mm 3 mps 760 mmHg 93%
    22:00 +28°C° 0.5 mm 3 mps 760 mmHg 93%
    23:00 +28°C° 0.5 mm 3 mps 759 mmHg 94%
    Show more